Theta_e
313 312 312 313 312 315 318 319 317 317 317 312 314 315 316 319 318 318 318 320 319 323 326 323 322 324 331 336 336 337 337 337 340 340 339 347 348 348 350 349 349 347 346 341 338 337 332 328 327 326 326 324 322 320 324 331 333 335 336 337 338 338 338 337 336 335 335 336 336 333 330 328 326 326 324 318 316 316 316 318 317 315 312 312 314 312 311 313 315 315 312 313 314 314 314 312 309
313 312 312 312 312 317 320 317 316 316 314 311 315 316 317 319 317 317 318 318 319 321 320 320 320 323 330 337 341 342 342 344 347 347 346 347 348 348 349 349 348 346 345 341 338 335 329 327 326 326 326 325 322 320 322 328 332 333 335 336 337 337 338 337 336 336 336 336 334 331 328 326 325 326 324 318 316 316 316 317 319 321 318 321 325 322 316 315 318 317 315 316 316 316 317 314 311
312 312 313 313 315 319 319 315 314 313 312 311 314 317 317 317 317 317 318 318 318 319 319 319 323 331 336 340 344 342 345 348 347 347 346 347 348 348 348 349 347 346 344 340 338 334 328 326 325 327 327 326 323 320 320 322 327 330 333 334 336 337 337 337 336 336 335 333 330 327 325 324 324 323 321 318 318 319 319 318 322 328 329 331 334 332 324 324 326 322 319 319 318 318 318 317 314
311 313 315 317 316 318 318 315 315 313 311 311 312 317 317 317 317 317 318 318 318 319 320 320 327 340 341 342 346 344 346 348 347 346 347 347 348 349 349 348 347 346 344 341 339 334 328 325 325 328 329 327 323 321 320 319 321 325 330 333 336 336 336 336 336 336 332 330 328 326 327 329 329 325 320 318 319 320 323 323 323 330 334 335 337 334 327 327 329 327 326 321 319 321 320 318 317
311 313 315 320 319 317 319 316 316 313 312 313 313 316 317 317 317 317 318 318 320 319 320 321 330 344 344 345 348 345 347 348 346 345 346 347 348 349 348 347 346 345 344 342 340 336 329 326 326 329 330 328 325 323 321 320 320 322 326 330 333 335 336 336 336 334 330 328 328 331 335 336 336 333 329 325 322 322 328 329 326 331 334 335 337 332 327 325 326 327 327 322 320 321 320 318 318
313 315 315 319 321 318 318 314 314 313 315 316 315 316 317 317 317 318 319 320 320 319 322 325 332 341 345 347 348 347 348 348 347 346 346 347 348 348 347 347 346 344 344 342 341 338 329 326 328 330 331 329 327 325 323 321 320 320 323 326 329 332 334 334 334 333 330 331 333 337 339 339 338 337 336 333 327 322 326 331 329 332 334 335 335 331 329 327 324 325 324 321 321 321 320 318 318
316 318 316 317 318 318 317 314 314 314 317 317 315 317 317 317 318 319 319 323 321 320 327 333 335 337 344 348 347 347 346 347 347 346 346 347 348 348 347 346 345 344 344 342 341 337 328 327 329 331 332 330 328 326 325 323 321 319 320 323 326 329 331 333 333 333 334 335 337 339 340 339 338 338 338 335 328 320 320 328 331 333 334 334 334 332 332 328 324 325 324 323 322 321 321 319 318
318 319 317 317 317 316 317 315 315 316 317 317 317 317 317 318 319 319 320 324 323 323 326 330 331 332 343 348 346 348 346 347 346 346 347 347 348 348 347 346 345 344 343 342 340 335 327 328 329 331 331 331 330 328 326 324 323 321 318 320 322 326 329 331 331 331 333 335 336 338 339 339 338 337 336 331 327 322 317 322 331 333 334 333 332 333 331 327 327 327 325 324 323 323 323 321 319
317 318 317 317 318 316 315 315 315 317 317 316 317 317 317 318 318 319 320 325 327 325 323 323 322 328 343 348 347 348 346 347 346 346 347 347 348 347 347 346 344 344 342 342 340 333 328 329 329 331 331 331 331 329 328 326 325 323 320 318 319 323 326 329 329 329 331 333 335 336 336 336 335 333 331 329 328 325 318 319 327 332 332 332 331 332 329 326 329 330 328 326 325 325 325 323 321
316 317 316 316 317 314 313 314 315 316 316 316 317 317 317 318 318 320 323 327 329 325 323 321 322 332 345 348 348 348 347 346 346 346 346 347 347 347 347 345 344 343 342 342 339 333 330 330 328 331 331 331 331 330 330 328 325 323 321 318 318 321 325 329 330 330 331 333 334 334 334 332 330 329 329 329 328 326 320 317 324 329 329 330 331 331 330 328 328 329 328 327 327 327 327 326 324
317 316 317 316 314 312 312 313 315 316 316 316 317 318 317 317 318 321 325 330 332 324 323 323 324 336 347 348 348 347 347 346 346 346 346 346 346 346 346 345 344 343 342 341 337 333 334 332 329 330 330 330 331 331 331 330 326 321 320 318 318 322 327 332 332 332 332 332 333 333 331 329 328 328 328 327 328 330 325 318 319 326 330 330 332 331 331 330 328 327 327 328 328 328 328 327 326
318 316 316 314 313 313 314 314 314 316 316 316 317 318 317 317 318 319 325 334 334 324 322 328 331 337 346 348 348 346 347 346 346 346 346 345 345 345 344 344 343 342 341 339 336 333 335 333 331 331 329 330 331 331 332 331 326 320 320 318 319 325 330 333 333 333 331 331 332 331 329 329 329 329 327 325 328 332 330 325 320 323 330 332 331 332 332 330 327 327 327 327 328 328 328 328 327
317 317 315 314 315 315 314 314 314 315 315 317 317 317 317 317 318 319 327 336 334 326 326 333 339 341 345 349 347 346 347 347 346 345 345 344 344 344 343 343 342 341 340 339 336 334 336 334 333 333 330 330 331 331 332 332 325 319 319 319 320 325 329 332 332 332 330 330 330 328 326 328 330 329 326 324 327 330 331 331 325 319 325 331 331 331 331 329 326 326 326 326 327 327 327 328 327
316 317 315 314 315 315 314 314 314 314 315 317 317 316 317 317 317 319 327 334 336 338 337 338 343 343 347 349 346 347 347 346 346 345 345 344 344 343 343 342 341 341 340 339 336 334 337 336 334 333 332 331 331 332 332 331 324 319 320 321 323 324 326 328 329 329 329 329 326 323 324 327 330 329 327 325 325 329 329 330 328 322 321 326 330 329 327 328 326 324 325 326 327 326 326 327 328
316 316 316 315 315 314 314 315 315 314 315 317 317 316 318 317 317 319 326 333 341 345 342 341 345 344 345 345 346 347 347 346 345 345 345 344 344 343 343 342 340 340 340 340 336 335 337 338 336 333 333 334 332 333 335 331 322 320 323 323 325 325 325 326 327 327 326 324 322 322 326 328 329 330 329 326 325 327 328 330 331 328 324 322 323 325 325 327 327 324 324 326 328 327 326 328 328
315 316 315 315 314 313 314 315 314 314 315 317 317 316 317 317 318 319 325 337 343 344 344 343 345 345 344 344 346 347 347 346 345 345 345 344 344 343 342 341 340 341 341 340 338 337 337 338 338 335 334 335 334 333 334 331 323 321 324 325 326 327 327 326 326 326 324 323 324 326 329 329 330 331 330 329 328 328 330 332 332 330 328 322 318 320 325 327 328 326 324 326 329 329 328 328 329
315 315 315 314 313 313 315 315 314 314 315 317 317 317 317 317 319 317 322 337 341 342 346 345 346 347 346 347 347 347 346 346 345 345 345 344 344 343 343 341 341 341 341 340 339 339 337 337 338 337 335 335 335 334 334 330 324 324 326 326 327 330 330 328 327 326 326 328 330 331 331 331 332 332 331 331 330 329 331 332 333 330 327 323 316 317 323 327 329 328 326 326 330 331 330 329 329
314 315 315 313 314 314 315 315 315 315 315 317 317 317 317 316 319 316 318 331 337 341 345 346 347 347 346 346 346 347 346 346 346 345 345 345 344 344 343 342 341 341 340 340 340 340 338 337 338 338 336 336 336 335 335 328 325 328 328 328 330 331 332 331 330 329 331 332 332 332 332 332 333 332 331 331 330 331 331 330 330 328 324 322 318 317 320 325 328 329 328 328 329 330 329 329 329
315 316 315 314 315 315 315 315 315 315 315 317 317 317 317 317 318 317 318 323 330 337 343 345 347 347 345 345 345 346 347 346 346 345 345 345 344 343 343 342 341 341 340 341 340 340 338 338 339 338 337 336 336 335 335 329 328 331 330 331 332 332 333 334 333 332 333 334 333 333 333 333 333 332 332 332 331 330 328 325 324 323 321 321 320 319 319 322 326 328 329 329 329 329 330 331 330
315 316 315 315 316 315 315 315 315 316 316 317 317 317 317 318 317 316 318 319 326 334 338 342 346 347 345 344 345 346 346 346 346 345 345 344 344 343 342 341 341 341 341 341 340 340 340 339 339 339 337 336 336 336 335 331 330 332 333 333 332 332 334 335 335 333 334 334 333 333 333 334 334 332 333 332 330 327 324 322 321 321 321 321 320 319 319 320 322 325 327 329 330 330 332 334 333
315 316 314 316 316 314 315 315 316 316 316 316 317 317 317 317 317 317 318 318 324 329 333 337 343 346 345 344 345 346 346 346 345 345 344 344 343 343 342 341 341 340 340 340 340 340 340 340 340 339 338 337 336 336 335 332 330 332 334 333 332 333 333 334 335 333 334 333 332 334 335 336 335 332 331 329 326 324 322 321 322 321 320 320 319 319 319 320 322 324 325 328 330 332 334 334 334
316 316 314 317 315 314 316 316 316 316 316 317 317 317 317 316 316 318 317 317 320 322 327 332 338 344 344 344 345 346 346 345 345 344 343 343 343 342 341 341 340 340 340 340 340 340 340 340 341 340 339 339 337 335 334 332 329 331 333 333 332 334 334 335 335 334 334 333 334 335 334 334 333 330 327 326 324 322 321 321 323 321 319 319 320 321 320 322 327 328 327 328 330 331 334 334 334
315 315 316 317 315 315 316 316 315 316 316 317 317 316 316 317 317 318 317 317 318 319 323 328 336 343 344 345 345 345 345 345 344 343 343 343 342 342 341 340 340 340 339 339 340 340 340 340 339 338 339 339 336 335 334 331 330 332 334 334 335 337 336 337 336 335 335 335 335 332 331 332 330 327 325 324 322 321 321 321 323 323 323 321 320 321 320 324 328 329 329 329 330 331 333 334 334
313 314 316 316 316 316 315 315 316 316 317 317 317 316 316 316 316 317 317 317 318 323 328 332 339 344 343 344 344 344 345 344 343 343 342 342 342 341 341 340 341 340 338 337 337 336 337 339 338 337 338 338 336 335 333 332 332 332 332 333 334 334 334 335 337 336 336 334 332 330 330 330 327 325 323 321 320 321 322 322 324 324 324 321 319 321 322 324 327 327 328 329 329 331 333 333 333
313 313 316 316 316 316 315 316 316 316 317 316 316 316 316 316 316 316 316 318 324 331 336 340 343 344 343 343 344 344 344 344 343 343 342 341 341 340 340 340 340 339 338 337 336 334 334 336 336 336 337 337 336 336 333 332 332 331 331 331 330 329 330 333 334 334 333 331 328 328 328 327 325 323 322 320 320 323 324 324 326 326 325 323 321 321 322 322 323 326 328 329 330 331 333 333 332
315 314 316 316 316 316 316 316 316 316 316 316 315 316 316 316 315 315 319 326 333 338 341 343 344 343 343 344 344 344 343 343 343 342 342 341 340 340 340 340 339 338 338 337 336 335 333 334 337 336 336 337 337 336 334 332 333 334 333 331 328 327 328 329 331 331 330 328 327 327 327 326 325 323 323 322 323 325 326 326 327 327 326 325 325 324 323 323 323 326 327 329 330 331 333 332 332
316 316 316 316 316 316 316 315 315 315 315 315 315 315 317 316 315 316 324 332 336 341 343 343 344 343 343 343 343 343 343 343 342 342 341 340 340 340 339 339 339 337 335 335 335 334 332 333 336 336 336 337 337 335 334 332 334 335 333 331 328 327 327 327 329 329 328 327 327 328 327 327 326 324 325 324 324 326 326 325 325 325 324 325 327 326 326 327 326 326 326 330 331 332 332 332 332
315 315 315 315 315 315 315 315 315 315 315 315 315 315 316 316 315 316 322 330 336 340 342 343 344 343 343 343 343 343 343 342 342 341 341 340 340 339 339 339 338 336 333 331 331 330 331 332 332 335 336 337 337 335 333 333 334 334 332 330 328 327 327 328 328 327 327 328 328 328 328 327 326 325 325 325 325 325 325 324 324 324 324 324 326 327 328 329 328 325 325 330 332 332 332 332 332
314 314 313 314 314 314 315 315 315 315 315 315 315 314 315 315 316 316 320 329 336 338 341 343 343 343 342 343 343 342 342 342 341 341 341 341 340 339 339 339 336 333 329 325 326 327 330 331 331 335 337 336 336 335 333 333 334 333 331 332 329 326 327 328 328 328 328 329 328 328 328 327 327 326 326 326 326 325 325 325 325 325 324 323 325 328 329 330 328 326 326 330 333 332 332 332 332
314 314 314 314 314 314 315 315 314 315 314 315 314 312 314 316 317 316 319 329 336 337 340 342 343 344 342 343 343 342 341 341 342 341 342 341 341 340 339 339 334 328 325 324 329 330 329 330 331 334 336 336 336 335 332 332 333 332 331 332 330 326 327 329 329 328 328 328 328 328 328 328 327 326 326 326 327 327 326 325 327 327 325 324 325 327 328 329 328 328 329 331 332 332 332 332 332
314 314 314 313 313 313 315 315 314 315 313 314 314 311 313 316 316 317 321 331 336 336 338 340 342 343 342 343 342 342 341 341 342 341 342 341 341 340 339 338 333 326 324 326 331 332 332 332 332 334 336 336 335 334 332 331 333 332 331 332 329 326 328 330 329 328 328 328 328 328 328 327 327 326 326 327 328 328 327 326 327 328 326 324 325 327 327 328 329 330 331 332 332 332 332 331 331
314 313 313 314 313 313 315 315 314 315 314 314 314 312 314 317 316 318 324 331 335 335 336 338 341 342 342 343 342 342 341 341 341 341 342 341 340 340 338 337 333 325 324 325 328 331 333 333 333 334 335 335 334 334 330 329 331 331 331 331 329 327 328 329 329 329 329 327 326 327 327 326 327 327 327 328 328 328 328 328 328 327 325 325 325 327 328 328 328 330 332 332 332 332 330 329 329
315 313 313 315 314 313 314 314 315 315 314 315 314 313 314 316 316 317 322 329 333 334 336 337 340 340 341 342 343 342 341 341 341 340 342 341 341 340 339 337 332 325 323 325 326 329 333 334 333 334 336 334 333 333 329 327 330 331 331 331 329 327 328 330 329 330 330 327 326 327 326 327 328 328 328 328 327 328 328 328 328 326 325 325 324 325 327 327 326 328 330 330 330 329 328 327 328
315 314 313 315 314 314 313 313 315 315 314 314 314 314 314 316 317 316 319 325 329 331 334 337 338 339 339 341 343 342 341 341 340 340 341 342 342 340 339 337 332 326 324 328 330 330 333 334 333 334 336 334 333 332 328 326 330 331 331 330 329 327 328 330 330 331 330 327 327 327 327 328 328 328 328 327 326 326 327 327 326 325 325 325 324 324 326 326 326 326 327 328 328 327 327 328 329
315 315 314 314 314 313 313 313 314 314 314 314 314 314 315 315 317 317 317 320 326 329 332 335 336 338 339 340 342 342 341 341 340 340 340 341 342 340 339 337 334 328 325 330 334 333 334 335 334 335 335 334 332 330 326 327 330 331 330 330 329 328 328 329 329 330 329 327 328 328 327 327 326 327 327 327 326 326 327 327 325 325 325 325 324 325 326 326 325 326 326 326 327 327 328 329 330
315 315 314 314 313 313 314 314 314 314 314 314 314 314 314 315 315 317 317 318 322 326 330 333 334 337 339 338 340 342 341 340 340 340 340 341 342 341 340 338 335 332 328 330 335 335 335 335 335 336 334 332 331 329 327 328 330 330 330 330 329 328 329 328 329 331 331 329 328 328 326 325 326 326 327 326 326 327 327 326 326 325 326 326 325 326 327 326 325 326 327 326 326 326 327 328 329
314 314 314 314 313 314 315 314 314 314 313 313 314 314 314 315 315 317 317 317 319 321 327 332 333 335 337 337 338 341 342 341 340 340 340 341 341 341 341 339 337 336 332 331 335 336 336 336 335 335 333 331 331 330 327 328 331 330 330 330 329 328 328 329 330 332 331 329 328 327 326 326 327 327 327 327 325 327 328 327 326 327 327 325 324 326 327 326 325 326 326 326 325 325 325 326 328
314 314 314 314 313 314 315 315 314 314 313 313 315 314 314 315 315 316 317 317 318 318 322 328 330 332 333 335 336 339 342 341 340 341 341 340 341 341 342 339 338 337 333 333 335 336 336 336 335 334 332 331 331 329 328 329 331 331 330 330 329 328 328 330 330 330 329 328 327 327 327 327 328 327 328 328 326 327 328 328 327 327 327 326 324 325 327 327 326 325 326 326 325 325 325 326 328
315 314 314 313 314 314 315 315 314 313 313 314 314 314 314 315 315 316 317 318 318 317 317 322 327 329 330 332 335 336 340 342 341 340 341 341 340 341 342 341 338 335 333 334 336 337 337 336 335 334 332 332 331 329 328 329 331 331 330 330 329 328 329 330 330 329 328 328 328 328 328 328 328 328 328 328 328 327 328 328 327 327 328 327 325 323 326 327 325 324 325 326 326 325 326 328 328
315 315 314 313 314 314 313 314 314 314 314 314 313 314 314 315 315 315 317 317 317 317 317 318 323 327 329 329 333 336 339 342 341 340 340 341 341 340 341 341 338 336 336 335 336 337 337 336 334 334 333 332 331 330 329 329 330 330 330 330 329 329 328 329 330 329 328 329 329 328 328 328 328 329 329 329 329 328 328 328 327 327 328 328 325 323 324 325 323 324 324 326 327 327 327 329 328
315 315 314 313 314 314 313 314 314 314 314 315 314 313 313 315 315 315 316 317 317 317 318 318 320 325 328 329 332 336 339 341 342 341 340 340 341 340 340 340 338 337 337 336 336 336 336 336 335 334 333 332 331 330 329 330 331 330 331 331 330 329 329 329 330 330 329 329 328 328 327 327 327 328 328 328 330 329 328 327 326 327 328 327 326 324 324 324 324 325 325 326 327 326 327 327 326
314 315 315 314 313 313 313 314 314 313 313 315 315 312 312 315 317 316 317 318 317 317 319 319 319 322 326 329 332 335 338 341 342 341 339 340 341 340 340 340 339 338 338 337 336 336 336 336 335 334 333 332 331 330 328 329 331 331 331 331 330 329 330 330 330 330 330 329 328 328 327 325 326 327 327 328 329 328 328 327 326 326 327 327 326 325 325 324 325 327 327 327 327 327 327 326 325
313 315 315 314 313 313 313 314 313 312 312 315 316 312 312 314 316 318 318 318 317 319 321 321 320 320 322 326 330 334 338 339 340 339 337 339 340 340 340 340 339 339 339 338 336 336 337 337 335 335 334 332 332 331 329 329 331 331 330 331 330 330 331 331 330 330 329 328 328 327 326 326 326 326 326 327 328 327 328 328 327 326 327 327 326 325 325 324 326 329 329 329 329 329 329 328 326
313 315 314 313 313 313 314 314 313 313 314 315 315 313 312 312 315 318 318 318 318 319 323 325 324 323 322 324 327 331 336 338 338 338 337 338 339 340 340 339 338 338 338 338 336 335 337 337 336 335 335 333 333 333 331 329 331 332 331 330 330 331 331 330 330 330 329 328 326 326 325 326 325 326 326 326 326 327 327 328 327 327 327 327 326 326 325 324 326 330 330 330 331 330 329 329 328
314 314 313 313 313 313 314 313 313 314 315 313 313 314 313 311 314 319 319 317 316 320 327 328 328 328 327 326 329 332 335 336 337 337 338 338 338 339 340 338 337 337 337 337 336 336 336 337 336 335 335 334 334 334 332 331 331 331 331 330 330 331 331 330 329 329 328 326 326 325 325 326 326 326 325 324 325 325 327 328 328 327 327 327 327 327 325 324 326 328 327 328 330 330 330 330 329
314 313 313 313 313 313 314 314 313 314 315 313 313 315 313 311 313 316 317 317 317 324 329 330 331 332 330 330 331 333 335 336 337 337 338 337 338 339 339 337 336 337 337 336 335 335 336 336 336 335 334 334 335 334 333 333 332 331 331 330 330 331 330 329 329 327 325 324 325 325 325 326 325 325 324 323 323 323 325 327 327 328 327 326 327 326 325 325 325 324 323 325 327 329 330 330 331
314 313 312 313 314 314 314 314 314 314 314 313 313 315 314 312 312 314 319 323 325 328 330 330 332 332 332 332 332 333 334 336 338 338 338 338 338 339 337 336 336 336 337 334 332 334 335 336 336 335 334 334 335 334 333 334 333 331 330 328 330 331 329 329 328 326 324 326 327 326 325 325 325 324 323 323 322 322 323 325 326 328 327 326 326 326 325 325 324 323 322 324 324 326 329 330 330
313 312 313 313 314 314 314 314 314 314 314 313 314 315 314 312 312 316 323 326 327 329 329 329 330 331 332 332 332 332 333 335 337 337 337 337 337 336 336 335 335 335 336 333 332 334 335 336 335 334 333 334 334 334 333 333 333 331 330 327 328 330 328 325 324 322 322 326 329 327 325 326 326 324 322 322 322 321 322 322 323 326 326 326 326 326 325 325 325 323 322 323 324 325 327 328 329
313 312 313 313 313 314 314 314 314 313 313 315 315 314 314 313 315 322 325 326 328 329 329 329 329 331 332 332 332 332 332 334 335 336 336 336 335 335 335 335 335 335 334 332 332 334 335 335 334 333 333 334 334 334 333 333 332 331 328 326 327 329 327 322 320 320 321 324 328 328 326 327 328 326 324 323 321 320 320 320 321 322 323 324 325 326 326 325 325 324 322 323 324 324 325 325 327
313 312 313 313 312 314 315 314 313 313 313 315 315 315 313 312 318 326 327 327 329 329 329 329 329 331 332 332 331 331 332 333 334 335 334 334 334 334 334 335 334 333 332 331 331 333 334 334 333 333 333 334 334 334 333 331 330 329 328 327 328 328 326 322 319 320 322 324 327 327 325 327 327 324 322 322 320 319 319 320 319 319 321 323 324 325 325 324 324 324 323 322 323 325 324 324 325
313 313 313 313 312 314 314 313 312 313 314 315 315 315 313 312 319 327 328 329 330 329 329 329 330 331 332 332 332 331 331 332 333 333 333 333 333 333 333 334 333 332 332 332 332 332 333 333 333 333 332 332 333 333 332 329 327 327 327 328 329 328 325 323 319 318 321 323 323 322 322 324 324 322 321 320 319 318 318 319 318 318 319 321 322 323 325 324 322 323 325 324 323 325 324 323 325
314 314 313 313 314 314 314 314 315 314 313 314 314 314 315 316 322 326 328 329 329 329 329 329 330 331 331 332 333 332 332 332 332 331 331 332 332 332 332 332 333 332 332 332 332 332 332 332 333 331 328 330 332 333 332 327 325 327 326 327 329 327 325 324 320 317 318 317 318 320 321 323 324 322 320 319 318 318 318 318 318 318 318 318 319 320 324 325 322 323 327 327 326 326 325 324 326
314 313 313 313 315 314 314 315 317 315 313 314 315 314 315 317 321 325 327 328 327 328 328 329 330 330 331 332 333 334 333 332 332 331 330 331 331 331 331 332 332 331 331 331 331 332 332 332 333 331 329 331 332 332 331 326 324 325 324 326 329 326 324 323 318 316 316 314 316 319 320 320 320 318 317 318 318 318 318 318 317 318 317 317 318 318 321 324 323 324 328 329 328 327 324 324 326
314 313 313 314 315 314 314 315 315 314 314 315 315 314 314 315 319 325 328 328 327 327 326 328 330 329 330 331 332 333 333 332 332 331 331 330 330 330 330 330 331 331 331 330 330 331 332 332 333 332 332 332 332 332 331 327 324 324 324 327 328 325 322 321 318 316 316 316 317 317 317 316 316 317 317 317 317 317 317 317 317 318 318 318 318 318 319 320 321 323 326 328 329 325 322 323 324
314 314 314 314 314 314 314 314 314 314 314 314 315 315 314 313 318 325 328 329 328 326 326 328 329 329 329 330 330 331 332 332 332 332 331 331 331 331 330 330 330 331 331 330 329 331 331 332 333 333 333 333 333 333 331 329 328 326 325 327 327 324 322 320 317 316 317 318 319 318 318 318 317 318 319 318 319 318 316 317 318 318 318 318 318 318 319 318 319 321 323 325 326 323 321 323 323
313 313 314 314 314 315 315 315 314 314 314 315 315 315 315 318 323 327 328 327 326 326 327 327 326 326 325 326 326 327 329 330 331 332 332 332 331 331 331 330 330 330 331 331 331 330 331 332 332 333 334 332 332 332 331 331 331 328 327 328 326 324 322 320 318 317 319 321 320 320 321 319 317 318 319 318 320 320 316 317 318 317 317 317 317 317 318 318 319 320 322 324 324 320 320 322 322
313 313 313 314 314 315 316 315 314 314 314 315 315 314 317 323 325 325 326 325 325 326 326 324 322 321 321 321 322 323 326 328 330 331 331 331 331 331 330 330 330 329 331 332 332 329 330 332 332 333 334 332 331 331 331 332 331 328 327 327 326 325 324 322 320 318 320 322 321 322 323 319 316 316 315 316 320 321 318 318 319 319 319 316 315 316 316 317 320 321 323 325 322 319 321 323 322
315 314 313 314 315 314 315 314 314 313 313 315 315 314 320 325 324 324 325 324 324 324 324 322 320 318 318 318 319 320 324 326 328 330 330 330 331 330 330 331 330 330 330 332 333 331 330 331 332 333 333 333 332 330 329 331 331 327 327 327 327 327 325 324 322 321 321 322 321 322 322 319 315 311 311 316 320 318 318 319 320 321 320 316 315 316 315 318 323 322 321 322 320 320 323 323 321
Wind_Speed
7 7 8 9 12 10 8 7 5 3 4 5 4 5 2 2 2 2 3 1 2 2 1 7 9 10 8 8 8 9 9 7 7 3 0 4 8 15 14 16 22 21 22 26 26 24 21 20 18 16 15 14 14 15 18 20 21 21 22 22 21 21 21 21 20 19 17 15 13 13 13 13 13 12 11 11 13 14 15 15 15 16 17 17 16 17 17 16 16 17 17 17 18 19 24 25 25
9 9 9 11 13 7 6 6 5 2 5 5 4 4 3 3 3 4 2 2 3 4 8 12 13 11 9 9 10 11 6 3 7 6 4 7 14 15 14 18 22 21 22 26 27 24 22 20 18 17 15 14 14 15 17 19 20 20 21 21 21 21 21 21 20 18 16 14 12 12 13 13 12 12 11 11 13 15 14 14 15 16 16 16 16 16 16 15 15 16 16 16 16 17 22 24 25
11 11 10 12 11 4 4 5 5 2 4 4 1 3 3 1 2 1 2 4 7 9 12 12 12 7 7 8 5 6 1 3 4 5 6 11 14 15 15 18 22 21 21 25 27 24 23 21 19 17 16 14 14 15 16 17 18 19 20 20 21 21 22 21 20 17 15 13 13 12 12 12 12 12 11 11 13 14 14 13 14 16 16 15 15 14 15 14 14 15 15 15 16 17 20 22 23
12 12 12 10 8 5 5 4 4 3 4 4 0 5 3 1 3 4 5 8 10 11 11 10 7 1 5 5 0 3 0 1 1 3 8 11 13 17 18 19 22 20 20 23 23 24 24 22 20 18 16 15 14 15 15 16 17 18 19 20 21 22 22 21 19 17 15 15 14 13 13 13 13 13 12 12 13 13 13 13 13 15 16 16 15 13 13 14 13 14 15 16 17 19 21 21 23
12 12 13 8 6 3 3 3 2 5 4 3 1 4 3 3 5 7 9 11 11 11 9 8 5 2 2 2 3 3 1 1 2 4 9 11 14 20 19 20 20 19 21 21 20 22 24 23 21 18 16 15 14 15 14 15 16 17 19 20 21 21 21 19 17 17 17 16 15 14 14 14 13 13 12 11 12 12 13 13 13 15 16 16 15 13 13 14 14 14 16 18 19 20 20 21 22
10 10 12 6 4 2 3 4 3 5 3 3 4 2 3 4 8 10 11 12 9 8 7 6 5 2 2 2 2 2 2 1 3 6 9 11 16 20 20 20 20 20 21 20 19 21 24 23 20 18 15 14 14 14 14 14 15 16 18 19 20 20 20 18 17 17 17 16 15 15 16 16 15 14 13 11 10 11 13 14 15 15 16 15 14 12 13 14 14 15 17 19 20 20 20 20 21
11 9 10 6 2 4 5 4 4 4 1 2 5 5 6 7 10 10 11 10 6 4 5 4 4 4 2 5 4 4 0 2 4 7 11 14 19 20 20 20 20 21 20 20 18 20 25 23 21 18 16 15 14 14 14 13 14 15 16 18 19 19 19 17 17 17 16 16 16 17 18 16 15 14 13 10 8 10 12 15 17 15 15 15 13 13 13 14 15 15 18 19 19 20 20 20 20
12 8 7 7 3 4 5 4 5 3 2 2 4 5 7 9 10 10 10 8 6 4 5 5 5 6 2 5 2 4 2 4 6 9 14 18 20 20 19 19 20 21 19 19 18 22 24 22 21 19 17 15 15 14 13 13 13 14 15 17 18 19 19 18 17 17 16 16 16 17 17 15 14 13 10 8 8 10 12 15 19 17 16 15 14 13 13 14 14 15 18 18 18 19 19 20 19
10 5 5 6 3 4 5 5 4 3 1 1 2 3 5 8 9 10 10 9 7 6 7 6 7 6 5 6 2 4 4 6 9 14 17 19 20 19 18 18 20 20 19 19 19 23 24 22 21 18 17 16 15 14 13 13 12 13 14 16 19 20 20 18 18 18 17 17 17 16 15 13 12 11 10 10 9 10 13 15 17 18 17 15 14 13 12 14 15 15 18 17 18 18 18 18 18
9 6 5 5 4 4 5 5 3 2 1 1 2 2 4 8 10 9 10 9 7 6 7 5 8 6 6 7 5 5 5 9 13 17 18 18 20 19 17 18 20 20 20 20 20 24 23 22 21 18 17 16 15 13 12 12 11 12 13 15 19 20 20 18 18 18 18 17 16 15 14 12 11 11 12 12 10 10 13 15 16 17 16 14 13 12 11 15 16 16 17 16 16 16 16 17 17
8 6 5 5 5 5 4 3 2 2 2 1 0 3 5 9 9 9 10 9 6 5 5 6 8 9 6 6 5 6 8 12 15 18 18 17 19 18 17 17 19 20 20 21 21 23 23 21 20 19 17 16 15 13 11 10 10 12 12 14 17 18 19 18 18 18 18 16 15 15 15 14 13 13 13 13 12 9 10 13 15 16 15 12 12 12 12 15 17 16 16 16 15 15 14 14 15
6 5 5 6 4 4 3 3 1 1 1 2 4 5 8 9 9 10 11 9 5 3 5 7 6 9 8 6 6 7 11 13 15 18 18 17 17 17 17 16 18 20 19 22 23 23 23 22 20 18 17 16 14 12 10 9 9 11 12 14 16 18 18 18 18 18 17 16 15 15 15 15 14 14 13 14 14 11 9 9 12 15 14 12 12 13 12 14 16 16 15 15 14 13 13 12 13
7 4 5 5 3 4 3 4 1 2 2 4 6 6 9 8 11 12 12 9 3 1 4 5 3 8 6 7 8 9 13 15 16 17 18 18 17 17 17 16 19 20 21 23 24 23 22 22 21 19 18 16 14 12 10 9 9 11 13 15 17 18 18 17 17 17 17 16 16 15 15 15 15 15 14 14 14 13 11 7 8 12 14 13 13 13 12 13 15 15 14 14 13 12 11 10 12
7 4 6 4 3 5 5 4 1 3 3 7 5 8 9 6 11 12 12 8 2 4 1 4 4 7 6 7 8 11 15 16 18 18 18 18 18 17 16 17 20 20 21 23 24 24 22 21 20 19 18 16 15 13 11 10 10 13 14 16 18 19 19 18 17 17 17 16 16 16 16 16 16 16 14 13 14 14 12 8 6 8 11 12 12 12 11 11 12 13 12 12 12 11 10 9 10
6 4 5 5 5 5 5 4 2 3 3 7 5 9 9 6 9 11 12 8 4 4 1 5 4 4 4 4 7 14 17 18 19 18 18 18 18 18 17 18 19 20 20 21 23 24 22 20 19 19 18 16 16 14 12 11 11 14 16 17 18 18 19 19 18 18 17 16 16 17 17 17 16 16 15 14 14 14 12 10 8 7 7 9 11 11 11 10 9 10 10 9 10 11 10 9 10
6 5 5 5 6 5 4 3 3 3 3 5 6 10 9 7 10 10 10 8 3 1 1 4 4 0 1 2 7 17 20 21 21 20 19 18 18 18 18 19 18 20 20 20 22 23 22 20 19 19 19 17 16 15 14 13 13 15 16 16 17 17 18 18 18 18 17 18 18 19 19 18 17 17 17 16 15 14 13 11 9 7 6 8 10 11 11 10 9 9 9 8 8 10 10 9 10
6 6 6 5 6 5 2 4 2 1 3 5 8 11 10 9 10 10 8 6 3 1 1 3 4 2 5 4 11 20 22 22 22 21 21 17 17 17 17 18 19 19 19 20 20 21 22 21 19 18 19 18 16 15 14 14 15 15 15 15 16 16 17 17 18 18 18 19 19 20 20 19 17 17 17 16 15 14 13 11 9 8 6 6 8 10 10 10 9 8 8 7 6 8 8 8 9
7 6 6 6 6 3 2 1 3 4 4 7 10 11 10 10 11 12 8 3 3 2 3 3 4 4 6 10 15 20 21 22 22 22 21 18 18 17 16 18 18 18 18 19 19 20 22 22 19 18 19 18 16 15 14 14 15 15 15 15 17 17 17 18 18 18 18 19 19 19 19 18 17 16 17 16 14 13 12 11 9 7 5 4 5 7 9 10 10 9 8 7 6 5 6 7 8
9 5 6 6 2 3 4 3 4 5 6 8 10 10 10 10 10 12 10 6 4 2 4 5 5 6 9 12 15 18 19 20 20 20 19 18 18 17 17 17 17 17 18 18 18 19 20 21 19 18 19 18 17 16 14 14 15 17 17 16 17 18 18 18 18 18 18 18 18 18 17 16 15 16 16 15 14 12 10 9 8 7 5 5 5 5 7 9 9 9 8 7 6 5 5 6 7
10 7 7 4 1 3 3 1 2 5 8 9 10 10 10 8 9 11 10 9 3 2 2 4 7 8 10 14 16 17 19 18 18 19 18 18 18 18 18 17 17 17 18 18 18 18 18 19 19 19 19 18 17 15 14 15 17 18 17 16 17 18 19 18 18 19 18 18 18 16 15 13 13 15 15 14 12 11 10 9 9 8 7 6 5 5 6 7 8 9 8 8 7 6 6 7 8
7 7 7 1 2 2 3 1 3 6 8 9 10 11 10 9 10 10 10 9 1 4 1 1 4 9 13 16 16 16 19 20 20 19 19 19 19 18 17 17 18 18 18 18 18 17 17 18 19 19 19 19 18 16 15 16 17 17 16 17 17 16 18 18 18 18 18 17 16 14 13 12 11 12 13 12 12 11 11 10 9 9 8 7 6 5 5 5 6 7 8 8 7 7 8 8 8
5 7 8 1 1 3 2 1 5 7 9 9 10 10 10 12 12 9 9 8 2 4 3 2 1 8 13 17 18 17 20 21 21 20 19 20 20 18 17 18 18 18 18 17 17 17 17 18 19 20 20 19 19 17 16 17 17 17 16 17 15 13 14 15 16 17 17 16 15 13 13 12 10 12 13 13 13 13 12 11 9 8 8 7 7 6 6 6 7 7 7 7 7 8 8 8 9
7 7 8 6 6 7 4 6 8 9 10 10 10 10 11 13 11 8 9 9 7 7 4 3 1 9 13 17 19 19 21 21 20 20 19 20 20 18 18 18 18 20 21 21 21 21 19 18 20 22 20 19 20 19 18 17 18 18 16 16 15 14 14 13 12 14 15 15 14 14 13 12 11 12 13 14 14 13 12 11 9 9 8 8 8 7 7 7 8 8 8 8 8 8 8 9 9
10 6 5 7 7 8 8 9 9 10 11 10 12 12 11 12 10 10 12 10 7 6 3 1 7 13 14 17 19 20 20 20 20 20 18 18 18 19 20 19 19 20 22 25 24 23 22 20 22 24 22 21 20 20 19 18 18 18 17 15 16 15 15 14 13 13 15 15 14 14 13 12 11 11 12 13 14 13 12 11 10 10 9 8 8 8 7 8 8 8 8 8 9 9 9 9 10
13 9 5 7 7 8 9 10 10 10 11 11 11 12 11 10 11 13 15 8 5 4 3 7 12 14 15 17 20 20 20 19 19 18 18 19 21 23 21 19 21 20 20 22 23 23 23 22 24 24 23 22 21 20 19 19 19 18 17 16 16 16 16 16 16 16 15 15 14 13 12 12 11 11 12 13 13 12 11 11 10 10 9 9 8 8 8 8 8 8 9 9 9 10 10 10 10
9 11 8 8 8 8 9 10 10 10 10 10 11 12 10 8 9 11 8 3 5 3 6 11 13 14 15 17 19 20 20 19 19 18 18 19 20 21 21 18 19 21 20 20 21 21 23 23 23 23 23 22 21 21 19 20 20 18 17 17 17 17 17 18 18 17 15 15 14 13 13 12 11 11 11 12 11 10 10 10 9 9 9 9 8 8 8 8 8 8 9 10 10 10 10 11 11
3 7 7 8 9 8 8 9 10 10 10 11 12 11 8 7 8 6 2 6 3 4 9 11 13 14 14 16 18 19 19 20 19 18 18 17 16 17 19 17 18 21 20 19 18 18 21 24 24 23 24 23 22 22 21 21 21 19 18 18 17 18 18 18 18 17 16 15 15 14 14 13 12 11 11 11 10 9 10 9 8 8 8 9 8 8 8 8 8 9 10 11 10 10 10 11 11
3 5 7 9 9 8 9 9 9 9 9 9 10 10 9 8 10 9 1 5 1 5 9 11 13 13 14 16 17 18 18 19 19 18 19 19 19 19 18 18 21 22 17 16 19 20 23 26 27 25 25 25 24 24 22 21 20 19 19 18 18 19 19 18 18 17 16 16 16 15 14 13 12 11 10 9 9 9 9 8 8 7 6 8 9 8 8 8 8 9 11 12 10 10 11 11 10
6 6 7 8 8 9 9 7 7 8 7 6 7 9 10 10 12 10 2 2 2 5 8 10 12 13 14 16 17 17 18 20 19 19 19 18 19 20 19 19 20 20 17 15 18 22 25 29 29 26 26 26 25 24 23 22 21 21 19 17 18 20 20 19 18 18 18 17 16 15 13 12 11 11 10 8 7 7 8 7 7 6 5 7 8 8 8 8 9 10 11 11 10 10 10 10 10
6 6 6 6 7 6 5 3 5 6 4 4 6 7 7 10 11 6 1 1 4 7 9 10 11 12 14 16 17 17 18 20 20 19 19 18 19 20 20 20 18 19 19 16 19 24 27 31 31 28 26 27 26 25 24 23 21 20 19 18 18 20 21 19 18 19 19 18 16 15 13 12 11 10 10 8 7 6 7 7 6 6 5 6 7 7 7 8 9 10 10 10 10 10 9 9 10
5 4 5 5 6 3 7 3 3 4 2 4 8 7 5 7 8 2 2 2 5 8 10 10 11 12 13 16 16 16 18 20 19 18 19 19 20 20 22 23 21 21 20 20 24 25 27 30 30 29 26 25 26 25 25 23 21 20 19 18 19 20 21 20 20 20 19 18 16 15 14 13 12 11 10 9 8 7 7 7 6 6 6 6 7 7 7 8 9 10 10 9 10 9 8 9 9
5 4 4 5 5 3 7 4 1 1 3 4 7 6 6 5 7 4 2 2 4 7 9 10 11 12 13 14 15 16 17 19 18 18 20 20 19 19 22 24 25 25 23 23 23 22 23 27 27 27 25 25 26 25 25 23 20 20 19 18 19 21 22 21 21 20 18 18 17 15 15 14 12 11 10 9 9 8 7 7 7 7 7 7 8 8 7 8 10 11 10 9 9 9 9 9 10
5 6 5 4 4 3 4 6 3 2 0 4 6 5 6 3 5 3 1 1 4 6 8 10 10 12 13 14 15 16 18 19 20 19 20 20 18 19 21 24 28 31 26 20 20 20 22 26 26 25 25 26 26 25 24 24 21 20 20 18 19 21 21 20 20 19 18 18 17 16 16 15 13 12 11 11 11 10 9 9 8 8 8 8 9 9 8 9 10 12 11 10 10 10 9 9 10
6 6 5 4 5 4 2 5 6 1 3 3 5 6 8 5 3 4 2 3 5 6 8 10 11 12 14 15 15 16 19 21 21 21 20 20 19 19 22 24 27 34 30 18 15 18 21 26 27 26 26 25 26 26 25 24 22 20 20 18 19 20 21 20 20 19 19 19 18 17 16 14 13 12 11 11 11 11 11 10 9 9 9 9 10 10 9 9 11 12 12 12 11 10 9 10 11
5 6 5 5 5 6 4 3 4 1 4 6 6 7 10 11 8 7 5 5 6 6 7 9 11 13 15 16 16 16 18 21 20 19 20 20 19 20 22 23 25 33 35 20 11 16 21 25 26 27 26 24 26 28 26 25 22 21 21 19 19 20 20 21 21 19 19 19 18 16 15 14 13 12 12 12 12 12 12 11 10 10 10 10 11 10 9 10 12 12 12 12 12 10 10 11 12
2 3 4 4 4 5 4 1 0 2 6 7 9 10 10 11 11 9 7 6 7 7 7 9 12 14 15 16 17 17 18 20 18 17 19 20 20 20 20 22 23 28 33 22 13 16 20 23 25 26 25 25 27 27 26 25 22 22 22 20 21 20 19 21 21 18 17 18 18 16 14 13 13 12 12 12 13 13 13 12 11 10 10 11 11 9 9 10 12 12 11 11 12 11 11 12 13
3 4 5 6 7 5 2 3 3 2 6 7 8 10 11 12 13 11 8 7 8 9 9 11 13 14 15 16 18 19 18 18 18 17 19 20 21 19 16 20 21 22 27 22 16 17 19 20 24 24 23 25 28 26 25 25 23 24 23 21 21 20 20 22 21 18 17 18 18 15 14 12 12 12 13 13 13 14 13 13 12 11 11 12 12 10 9 10 11 11 11 10 11 13 13 13 14
6 6 7 6 8 5 2 2 3 2 4 6 6 8 10 12 13 13 10 8 10 12 11 12 14 15 16 17 19 20 18 17 18 19 19 20 22 19 16 18 19 21 24 21 17 18 18 19 20 20 21 25 27 26 26 25 24 25 24 22 21 21 21 23 22 20 19 19 17 14 12 11 12 13 14 14 13 14 14 13 12 12 12 13 13 13 12 11 12 12 12 11 11 14 14 14 15
7 6 7 6 6 5 2 3 3 4 3 5 6 8 9 11 13 14 12 11 12 14 14 14 16 17 18 19 20 20 18 17 19 21 21 20 22 21 18 17 17 20 24 20 17 17 18 18 18 18 20 23 24 25 26 25 25 24 24 23 22 21 22 23 22 21 20 18 16 12 11 11 11 13 13 13 13 14 15 14 13 13 14 14 14 16 14 13 14 13 13 13 13 15 15 14 14
7 6 6 6 4 4 3 4 5 4 5 7 10 9 8 11 13 13 15 15 15 15 15 15 17 19 20 20 19 19 20 20 21 22 22 21 22 22 20 17 17 20 22 19 17 17 18 17 18 19 20 21 21 23 25 25 25 24 23 23 23 22 22 22 20 20 20 17 14 12 10 11 11 12 11 11 11 13 15 14 13 14 15 14 14 15 14 14 14 14 14 15 14 16 16 15 16
8 9 8 8 6 6 6 4 3 6 8 9 9 8 8 11 12 12 12 13 14 15 15 16 18 20 21 20 19 20 22 21 20 20 21 22 23 22 20 18 19 21 21 20 18 18 19 18 17 18 19 20 20 21 24 24 25 25 24 23 23 21 21 21 20 19 19 16 13 11 11 11 11 12 11 10 9 11 13 13 13 14 15 15 14 13 13 13 13 14 14 15 14 16 17 17 18
7 9 10 10 10 10 10 8 5 7 7 8 6 7 6 6 8 8 7 9 13 15 14 16 17 18 20 20 21 22 22 20 18 17 19 21 23 21 18 19 21 22 22 20 19 18 18 18 17 18 18 18 19 20 23 24 25 25 25 24 23 23 23 23 21 19 18 15 13 12 11 11 11 11 11 10 10 10 11 11 11 13 14 15 15 13 13 13 13 14 14 14 13 14 15 16 17
6 4 6 9 10 10 9 7 5 6 3 5 5 7 5 3 6 7 6 8 11 12 11 10 11 13 16 19 21 22 20 18 16 15 16 19 22 21 17 18 20 21 22 21 20 19 17 17 18 19 19 18 19 21 23 26 26 26 26 25 24 25 25 24 21 19 17 15 13 12 11 11 10 10 11 10 11 11 11 10 11 13 13 14 15 14 14 14 14 13 14 13 12 12 13 14 15
4 3 2 6 6 6 6 6 7 5 3 3 8 7 6 7 6 6 7 8 10 11 7 4 4 7 10 14 18 19 17 16 15 15 15 16 20 22 17 14 16 18 20 20 20 19 17 17 19 19 19 19 20 21 23 26 27 26 25 24 24 24 23 22 20 17 15 14 14 14 12 11 10 10 10 10 11 11 11 11 11 12 12 13 15 15 14 15 14 13 14 14 12 12 12 12 13
4 3 1 4 4 5 5 6 6 4 3 5 9 8 6 7 4 6 7 9 11 9 5 1 1 3 6 10 13 16 16 14 15 14 14 15 17 20 17 12 13 16 17 18 19 19 17 17 18 18 18 19 20 21 23 25 26 26 25 24 23 23 21 19 19 18 17 16 15 14 13 12 11 10 10 10 11 11 11 11 11 11 12 12 14 14 13 14 15 15 16 16 14 13 12 12 12
3 1 4 4 4 5 5 6 5 4 4 8 8 8 7 7 5 7 7 8 8 4 2 2 3 5 6 6 9 13 13 11 11 12 12 14 14 15 15 10 11 14 16 18 18 17 17 17 18 20 19 19 20 22 24 25 26 26 25 24 23 21 20 19 19 19 18 17 16 15 14 13 12 11 11 10 10 10 11 10 10 10 11 11 13 14 14 14 15 16 17 17 16 14 13 13 13
1 3 6 6 5 4 4 5 4 4 7 9 9 8 7 7 6 5 2 2 2 3 2 4 6 8 7 3 6 10 12 9 8 9 10 11 11 11 11 10 10 10 13 16 14 15 16 15 17 21 20 19 20 22 24 23 24 25 23 23 23 21 20 18 17 17 18 16 15 16 15 14 13 12 11 10 11 11 11 11 11 10 10 10 11 13 14 14 15 17 17 17 17 16 13 13 13
4 6 7 5 5 4 4 5 4 7 8 5 4 7 8 8 6 1 3 3 2 4 5 6 8 10 8 2 5 9 11 9 9 9 9 9 10 10 11 11 10 9 11 14 12 13 15 13 15 17 17 17 18 20 23 23 24 24 23 23 24 22 20 19 17 18 18 16 13 14 16 14 13 12 11 11 12 13 12 12 12 11 10 10 11 12 13 14 15 16 17 17 17 17 15 13 13
7 7 6 6 6 5 6 7 6 8 6 3 4 5 7 8 4 3 4 2 3 4 5 7 9 9 8 2 4 7 10 10 10 10 9 8 9 11 12 12 13 14 15 14 12 13 13 12 15 15 15 17 17 19 22 23 23 23 22 22 24 23 21 19 17 17 17 15 13 13 15 13 11 11 12 12 13 13 12 12 12 12 10 11 11 11 11 13 13 14 16 16 16 16 16 14 12
9 7 7 7 7 6 7 7 6 8 4 4 3 3 6 8 2 5 3 4 5 5 6 8 8 7 6 2 3 6 8 10 11 11 11 10 10 12 13 14 16 18 17 15 15 16 15 14 16 17 17 18 17 19 21 22 22 23 22 22 24 23 20 17 16 17 16 16 14 13 14 13 11 11 11 11 11 12 11 11 12 12 11 11 11 11 11 11 12 12 14 15 15 15 15 14 13
9 9 8 8 6 6 7 5 6 7 3 4 4 4 6 6 1 5 3 4 4 5 7 8 6 5 5 3 3 6 7 10 10 10 10 10 12 14 15 16 18 18 18 18 18 19 19 18 19 20 21 20 19 20 22 22 22 23 22 23 24 22 19 17 17 18 18 17 16 14 14 13 12 12 12 11 11 11 11 11 11 11 11 10 10 10 11 11 12 12 12 13 14 13 14 13 13
7 6 7 7 7 7 5 2 2 4 4 3 5 4 5 2 4 4 3 3 4 5 6 7 7 6 5 5 3 3 7 10 10 8 9 11 13 15 16 16 17 17 19 20 18 20 22 22 22 22 22 23 23 23 25 26 25 24 24 24 24 22 19 18 18 19 19 18 16 14 14 14 14 14 15 14 13 13 12 12 12 11 11 10 10 10 10 10 12 12 11 11 12 12 12 12 12
4 6 8 5 5 7 5 2 2 1 6 4 3 5 5 3 4 4 3 3 4 6 6 7 8 7 6 6 5 3 6 8 8 8 11 13 15 15 15 15 15 16 19 20 17 18 20 22 24 25 24 25 24 24 27 28 26 25 26 25 24 22 20 19 20 20 20 19 18 17 16 16 16 16 16 15 14 13 12 12 12 11 10 10 10 11 10 10 11 11 11 11 11 11 11 11 11
5 5 5 3 2 6 6 5 4 5 7 5 4 6 6 4 3 3 3 2 4 5 5 6 8 7 8 8 4 2 5 7 7 8 10 12 14 14 14 15 14 14 18 18 16 16 18 19 22 25 26 26 24 24 27 27 25 25 27 26 24 22 20 20 21 22 22 22 22 21 20 18 17 17 16 15 14 13 13 12 11 11 10 10 10 11 11 10 10 11 11 11 11 11 11 11 11
7 3 2 3 4 6 6 6 6 7 7 5 5 6 6 5 2 4 4 2 4 4 4 6 9 11 10 9 8 5 1 3 4 6 9 11 12 13 13 14 14 14 14 14 15 16 17 18 21 22 25 25 22 22 25 26 25 26 27 26 23 21 20 20 22 23 23 23 22 21 20 18 17 16 15 15 14 13 14 13 12 12 12 11 11 11 11 11 11 11 12 12 12 12 11 11 11
8 5 5 5 4 4 5 5 5 6 7 6 6 5 3 2 3 5 5 4 4 3 5 7 10 12 12 12 12 10 7 4 1 3 7 9 10 12 13 13 13 13 13 14 15 16 17 19 22 22 23 24 22 22 23 24 26 27 26 26 24 22 21 21 22 24 23 21 21 20 19 17 16 15 15 15 14 13 13 13 12 12 12 12 12 12 12 11 11 11 12 12 12 11 11 11 11
7 7 8 7 5 4 4 5 5 6 6 5 5 5 1 4 4 4 6 5 4 5 5 6 9 11 11 11 10 9 8 5 3 1 4 8 9 11 11 12 11 12 13 13 14 16 18 19 20 20 22 25 25 24 23 23 25 25 25 26 24 22 22 21 21 22 21 20 20 19 18 17 15 15 16 16 14 13 12 12 11 10 10 12 12 12 13 12 11 12 12 11 11 11 11 11 11
5 6 8 8 6 6 6 7 6 6 7 5 5 5 1 4 3 4 6 6 6 7 6 7 9 10 11 10 9 8 6 4 2 2 3 7 9 11 11 11 10 10 12 13 12 15 17 18 19 20 22 24 25 24 22 21 21 23 24 25 24 22 21 20 20 20 20 19 20 19 18 17 15 14 15 15 14 14 13 11 11 9 9 10 11 10 12 12 11 12 12 12 12 12 11 11 12
Wind_Direction
162 171 167 166 154 148 175 205 225 193 239 256 244 264 131 122 334 270 219 197 239 140 343 314 311 299 275 280 290 292 308 310 332 334 20 58 136 147 157 160 159 163 158 161 163 161 159 160 159 159 161 162 164 160 161 162 163 164 164 166 166 168 169 169 168 168 170 168 161 154 149 147 145 140 138 139 136 133 137 138 135 133 130 127 123 120 117 114 116 119 120 111 103 99 94 91 88
165 166 164 159 153 161 187 210 254 188 221 252 230 238 72 113 234 254 261 324 329 0 315 305 301 290 264 270 282 271 272 333 10 45 81 115 142 147 163 162 157 156 154 161 161 158 159 160 160 159 160 161 161 157 158 160 164 167 168 169 168 169 171 172 172 173 172 167 161 154 150 149 145 139 138 138 134 132 135 138 137 135 131 128 125 123 117 115 115 116 121 116 108 103 95 91 89
164 159 160 160 160 205 198 204 260 231 235 267 197 104 48 231 214 339 6 333 331 322 306 303 293 281 248 242 247 253 215 64 48 71 107 132 146 153 162 160 155 151 151 159 159 157 158 159 160 159 159 159 156 152 152 157 163 167 170 170 170 172 173 173 173 173 169 163 157 151 149 146 139 136 141 142 138 139 138 137 136 136 132 125 126 127 120 118 115 110 115 115 109 102 95 91 89
162 159 160 175 185 216 206 213 259 258 259 270 39 89 65 34 54 14 339 319 316 308 303 300 288 274 260 253 333 270 175 77 90 98 133 146 161 157 156 155 150 149 150 155 157 158 159 159 159 158 158 157 153 148 147 151 158 165 170 170 171 174 175 173 171 169 166 160 156 153 151 146 139 137 144 147 144 144 142 138 139 137 131 127 131 136 129 124 119 112 113 113 108 101 95 92 90
159 166 164 189 220 211 224 241 252 252 265 296 327 91 81 23 5 335 321 311 305 300 297 285 274 139 247 320 352 296 66 93 154 142 146 155 166 156 154 153 148 150 151 152 154 159 161 158 157 157 157 156 152 148 146 147 153 161 168 172 173 175 174 172 170 169 166 162 161 160 155 150 143 140 145 151 148 147 145 142 142 138 133 136 143 146 135 125 120 117 116 112 107 102 98 96 92
155 167 167 202 259 227 244 236 222 241 262 316 302 48 47 358 340 325 315 308 301 293 280 265 270 228 183 100 32 7 50 127 139 156 153 157 161 155 155 152 150 151 151 154 153 159 161 156 156 156 157 156 152 149 148 148 150 157 165 172 173 173 172 170 169 169 168 165 164 161 154 151 145 143 146 149 152 153 153 148 145 142 142 146 150 147 135 125 121 120 116 112 108 105 102 98 95
159 168 177 202 220 213 245 241 247 247 129 4 301 334 358 347 336 321 314 311 300 275 250 242 259 259 182 138 112 59 35 172 140 161 155 156 156 152 153 150 151 152 152 155 153 158 159 156 158 158 160 158 153 151 150 150 151 154 163 171 173 171 171 168 166 167 167 163 162 159 153 152 148 147 149 153 163 164 165 157 150 150 153 154 151 146 138 129 126 123 117 114 111 107 104 100 96
164 170 190 212 189 207 248 247 258 263 76 25 310 333 343 334 330 319 316 313 298 270 248 243 242 254 166 153 152 61 85 140 149 153 148 153 153 149 147 149 152 152 152 153 156 159 157 158 161 161 163 160 156 155 153 154 153 153 160 169 174 172 168 164 164 166 165 161 161 158 153 154 151 151 156 162 168 169 172 165 158 156 158 160 158 154 147 138 132 125 120 118 115 111 107 102 98
173 186 194 226 221 210 243 244 246 253 267 327 319 339 329 324 330 319 314 307 296 272 252 245 231 234 146 148 122 87 104 127 143 145 146 151 152 149 146 152 153 152 153 153 159 159 158 161 163 165 167 165 161 158 157 157 156 154 156 164 169 168 163 160 160 162 163 162 161 158 158 158 153 155 159 158 160 168 173 169 166 163 161 162 161 159 152 144 138 129 123 122 120 116 111 106 102
185 217 213 232 237 225 234 236 221 185 179 298 329 347 341 335 330 319 317 313 308 278 253 236 222 216 148 141 118 110 117 127 140 143 146 149 153 153 149 155 155 154 155 155 159 158 159 163 166 170 171 169 164 161 159 158 157 156 156 159 164 163 160 158 158 159 160 160 162 162 161 158 156 158 157 155 156 165 171 171 171 169 166 162 160 162 157 148 143 132 126 125 125 121 116 110 105
194 210 229 237 231 238 238 239 205 136 128 213 73 73 1 341 330 329 329 320 318 293 239 209 212 201 158 129 114 123 126 133 143 143 147 150 152 154 152 156 159 158 158 159 159 159 161 163 169 173 173 171 166 164 162 160 156 157 158 159 161 161 161 161 160 161 160 159 163 161 156 154 155 155 155 157 153 154 165 171 172 170 164 160 162 163 159 152 143 134 129 128 127 123 119 112 108
220 186 215 240 238 251 264 283 282 24 198 171 110 70 353 340 344 344 338 328 324 299 201 196 198 181 170 134 126 134 135 143 149 148 148 149 152 154 154 159 161 162 163 161 160 162 162 164 169 173 174 171 168 168 167 163 157 158 158 159 161 160 162 163 162 162 160 161 161 156 153 154 152 151 155 157 152 150 159 170 174 173 165 161 166 163 159 152 143 138 132 127 124 123 120 114 109
240 197 219 243 262 269 279 285 294 297 218 126 86 30 345 345 356 350 338 332 332 344 174 189 190 178 170 121 132 144 143 151 155 153 149 149 153 155 157 160 162 167 167 163 164 165 163 165 168 171 172 169 170 171 171 167 160 158 157 158 160 159 163 164 162 161 161 163 161 158 156 154 152 150 152 156 155 154 159 168 175 178 173 169 169 166 163 152 142 140 136 129 123 121 120 116 112
238 235 248 254 260 263 266 266 241 248 168 106 64 4 343 347 352 350 345 339 34 12 163 180 200 185 164 122 141 155 156 159 157 152 149 152 153 155 159 160 164 170 169 168 171 169 165 167 168 169 169 169 171 170 171 168 162 157 156 158 158 159 163 165 165 164 165 165 162 160 158 155 152 148 146 152 156 155 157 157 161 175 176 176 174 170 173 162 147 143 139 135 126 122 121 118 115
234 242 253 260 253 243 237 250 273 256 125 93 47 356 341 355 349 350 356 343 28 19 201 173 199 197 192 188 165 164 165 161 156 151 152 154 154 157 158 162 168 169 169 171 175 173 168 168 168 170 170 172 175 171 165 161 162 159 157 160 159 160 161 163 166 165 165 163 161 160 158 155 151 147 143 143 149 151 149 146 153 173 180 185 186 181 183 176 159 147 142 143 132 126 126 121 116
230 242 237 250 250 236 206 209 247 247 98 70 19 355 339 358 356 353 358 334 1 48 191 165 182 74 330 248 156 161 163 159 156 155 154 153 155 158 159 165 169 167 170 173 174 173 170 170 170 173 174 175 175 174 168 159 162 162 161 161 161 162 161 162 163 163 163 161 161 160 157 153 150 148 145 142 145 149 148 149 160 180 193 195 196 193 191 186 175 161 151 156 140 127 128 124 119
215 236 235 240 239 233 189 199 230 303 50 37 0 354 340 345 357 354 339 304 333 329 232 156 160 48 29 77 137 154 157 157 157 157 155 152 155 158 162 167 168 169 174 175 176 174 173 173 172 175 176 176 176 174 173 165 163 162 161 161 160 162 163 162 163 163 163 162 161 159 155 153 153 149 146 145 145 151 157 162 169 183 198 199 202 201 198 195 190 180 166 167 153 131 128 125 121
203 223 230 235 235 235 61 15 359 347 350 2 345 348 340 334 348 349 332 299 335 274 195 155 147 84 79 106 135 148 151 156 157 158 155 154 159 160 165 170 172 174 176 176 178 178 177 176 176 179 178 179 179 175 174 168 164 163 161 162 163 166 167 165 165 164 164 165 162 161 158 154 155 147 144 147 146 153 164 173 177 179 181 181 199 204 203 203 200 195 184 178 171 147 132 125 124
217 230 234 241 258 33 43 28 17 346 334 340 331 337 333 330 339 338 334 333 330 236 169 156 157 118 108 122 140 147 148 153 155 159 157 157 162 164 169 171 174 175 175 176 178 181 181 179 179 181 180 180 181 179 174 167 169 170 164 166 170 171 171 168 168 168 168 167 167 167 160 152 151 146 144 145 146 151 162 171 171 163 159 166 185 195 201 208 209 205 198 190 185 175 147 132 133
225 236 243 243 71 46 65 72 8 338 330 325 322 327 320 328 333 326 329 324 310 175 143 158 166 142 130 135 147 150 146 150 156 162 164 165 166 168 172 171 174 177 175 177 180 183 180 179 180 182 182 181 182 180 172 172 179 174 164 168 175 175 173 171 173 174 172 172 172 168 153 143 144 145 142 139 142 148 158 163 158 154 157 168 178 182 193 203 210 212 209 203 193 177 152 140 143
217 227 254 353 86 232 137 129 324 321 319 317 313 314 312 329 324 312 319 314 148 110 60 119 159 153 148 146 153 154 150 158 165 170 170 169 171 171 175 175 177 180 178 180 182 181 178 178 180 181 182 180 181 179 175 179 184 178 169 172 176 177 177 178 179 177 175 173 170 161 146 141 139 140 141 141 146 151 157 156 152 154 160 170 171 172 183 184 189 203 206 201 190 168 150 148 153
229 226 247 312 248 252 140 264 308 311 306 305 303 312 323 323 311 305 314 306 346 25 6 8 121 158 155 151 157 162 162 167 170 172 171 171 173 171 176 178 178 180 179 179 179 179 180 181 182 182 180 180 180 181 181 183 186 184 176 173 172 175 176 178 180 174 168 164 159 154 148 147 147 150 151 152 153 154 155 151 149 152 157 168 166 167 175 163 158 172 183 183 181 167 154 158 160
237 224 226 233 249 263 275 286 294 298 296 299 302 314 322 310 304 312 309 296 313 335 331 333 131 150 153 154 162 170 170 169 169 172 172 173 174 175 181 180 180 184 182 182 183 184 182 183 192 190 183 182 182 183 186 185 187 186 177 169 165 170 173 172 174 166 159 157 156 155 154 156 160 162 158 155 153 151 151 148 147 147 154 166 167 170 171 161 158 166 168 167 170 165 160 161 162
234 235 215 230 248 259 271 282 284 291 293 296 299 304 305 297 305 315 300 295 318 336 345 83 140 145 152 162 170 174 173 171 171 173 174 177 179 182 185 184 187 189 186 186 188 190 190 190 199 198 191 189 187 185 187 187 188 186 179 171 170 175 176 171 168 162 159 160 159 158 159 163 165 163 156 151 149 148 148 146 144 146 152 161 165 167 168 163 159 159 155 155 160 158 158 158 160
228 243 237 239 248 254 268 276 279 287 287 291 292 291 290 292 308 302 288 302 4 11 77 128 138 144 153 167 175 176 175 174 173 174 175 182 186 187 188 188 192 190 187 188 188 191 194 197 202 201 197 194 190 186 186 187 186 184 180 177 178 179 178 178 172 167 165 162 162 163 163 164 164 160 154 150 151 151 149 146 146 149 152 152 155 157 158 155 150 149 144 147 153 151 152 155 157
215 237 248 254 260 263 271 274 278 282 279 285 286 283 283 294 309 286 271 358 40 81 122 133 139 145 155 168 175 177 176 175 175 177 179 185 188 188 190 190 190 188 185 186 186 189 195 199 202 201 199 195 190 186 186 187 183 177 177 179 181 180 180 180 175 171 169 164 164 165 163 164 163 161 156 154 158 155 147 148 153 157 157 151 148 146 143 141 142 145 141 141 145 145 151 154 156
189 240 257 264 269 269 272 272 276 278 275 272 271 279 281 286 291 258 126 57 51 125 129 137 143 147 157 168 176 178 178 177 179 181 182 186 187 188 190 189 188 189 187 184 186 192 199 203 205 203 199 196 191 187 185 186 181 175 177 179 179 180 180 178 175 173 169 167 167 164 163 163 163 164 161 161 164 156 148 153 157 158 158 152 149 145 140 138 142 146 142 138 139 143 149 151 156
246 258 266 258 261 260 256 260 268 268 269 262 261 277 272 264 261 248 340 36 82 145 141 142 145 150 160 171 176 180 181 181 185 188 190 191 191 190 190 191 195 196 194 199 206 206 206 207 208 204 199 197 192 188 187 184 181 179 178 176 179 181 178 176 175 172 169 170 169 166 165 165 166 166 164 167 169 162 158 157 152 152 159 156 153 149 143 140 142 144 140 134 135 141 145 149 155
252 257 267 255 251 251 238 244 264 259 263 265 265 271 251 233 236 239 291 12 167 166 158 146 151 156 163 172 177 183 187 187 190 196 198 198 197 193 193 198 199 196 198 211 215 206 205 209 208 204 202 200 194 188 186 183 182 181 175 174 182 182 177 175 174 172 172 174 172 169 167 167 169 170 170 172 172 171 166 156 149 153 163 160 153 149 147 142 142 140 135 132 134 139 141 150 157
251 237 255 264 251 235 194 206 251 242 247 251 247 260 234 203 213 229 25 204 193 180 170 157 162 164 169 177 181 189 193 193 195 200 203 201 202 198 197 198 192 192 197 197 194 190 196 206 207 205 204 201 195 188 185 186 185 181 176 177 183 181 177 174 174 176 176 175 174 172 169 169 172 176 179 178 177 179 171 160 157 159 165 166 155 149 149 145 146 141 136 136 137 139 145 155 161
240 229 231 247 252 175 127 140 240 219 150 197 228 245 242 184 169 150 40 185 196 192 181 168 172 176 179 184 189 195 196 198 199 202 206 205 204 203 202 199 192 193 191 181 187 193 196 200 202 204 204 198 193 189 186 188 186 181 179 182 183 180 177 176 178 178 176 176 176 175 174 172 173 179 182 182 182 182 175 167 167 168 168 168 161 157 154 153 153 146 142 143 140 142 150 159 162
219 238 221 210 234 158 138 156 231 296 101 174 225 244 247 195 137 107 60 142 201 206 188 176 182 187 188 191 197 203 201 201 203 204 211 212 207 203 203 201 195 192 183 178 195 205 199 197 200 203 204 201 195 189 187 190 188 183 182 184 185 182 180 180 179 177 175 177 177 178 178 176 177 180 183 187 186 182 177 174 176 177 169 166 166 164 162 163 165 158 150 147 147 150 158 168 164
206 233 243 199 214 205 159 157 153 316 81 181 228 263 265 193 134 136 77 175 212 210 194 187 193 196 198 199 201 210 208 204 206 206 210 213 209 202 199 199 198 195 190 188 201 206 201 199 199 198 199 201 197 190 190 193 190 185 183 186 186 184 184 181 179 177 178 179 179 180 181 181 183 184 188 193 190 185 180 181 183 180 171 167 168 168 168 171 176 174 161 155 159 163 169 175 162
197 213 242 228 230 247 193 151 146 201 259 222 234 257 270 264 201 198 219 228 223 220 203 192 199 205 207 206 205 211 210 206 208 206 207 210 208 203 199 198 199 201 202 199 197 202 201 201 201 198 199 201 198 194 195 197 193 187 185 186 187 186 186 184 181 180 181 181 181 183 186 189 190 189 195 197 196 191 185 186 186 181 176 172 170 171 172 174 180 178 170 164 164 166 168 166 155
213 203 231 232 223 233 232 178 134 203 261 256 251 246 254 262 250 221 215 230 233 228 211 202 206 210 212 212 212 214 213 212 210 207 208 209 209 207 203 202 201 205 209 203 191 201 202 203 203 200 200 200 198 197 198 199 193 188 186 185 186 187 188 188 185 183 183 182 182 187 191 194 195 194 198 199 198 196 190 190 189 182 178 174 173 172 171 178 178 172 170 170 165 163 164 157 151
264 221 249 256 228 226 227 212 155 291 276 261 256 256 254 258 256 233 207 213 237 234 218 216 214 214 216 217 218 218 218 216 212 210 211 210 212 210 206 206 205 207 211 205 198 205 205 207 205 199 199 199 198 197 197 197 192 190 189 186 186 187 190 190 185 181 182 184 187 192 194 195 197 197 200 201 200 197 193 195 193 186 178 173 173 172 172 179 176 167 168 175 170 165 163 157 152
282 263 257 258 255 251 165 179 244 273 278 266 255 261 263 262 262 251 221 203 233 239 225 223 222 220 219 218 221 222 219 217 214 212 213 213 215 211 207 208 203 202 208 206 207 209 206 207 204 203 205 200 199 199 198 196 194 192 190 187 187 188 190 188 182 180 183 187 191 193 194 196 199 201 202 205 204 198 195 197 196 191 182 174 173 172 173 175 175 171 169 172 173 167 162 160 153
260 262 261 256 257 259 155 194 253 210 252 264 258 262 261 261 262 256 237 215 232 241 235 230 228 226 224 221 223 224 220 213 212 213 213 214 215 211 207 208 202 199 205 205 207 210 206 204 204 207 207 201 201 203 200 197 196 195 191 187 187 190 192 187 183 184 186 189 190 192 196 200 204 205 204 206 205 200 196 195 198 197 186 178 177 174 172 175 178 177 169 165 171 169 161 157 151
249 250 259 259 263 274 227 199 197 182 233 280 281 275 268 266 264 258 245 233 237 241 242 238 231 229 228 224 223 223 219 209 208 211 212 214 214 212 208 207 204 204 208 206 201 203 203 201 203 205 203 199 201 204 202 199 197 195 192 188 188 191 192 188 187 189 189 189 189 191 196 200 204 204 207 210 208 203 197 193 197 198 187 181 183 178 174 181 183 180 172 164 168 168 160 157 154
239 241 252 251 256 276 243 175 170 205 260 284 287 283 275 268 259 252 245 239 241 240 240 240 234 232 231 228 226 223 219 211 206 206 207 210 211 212 210 207 206 207 210 205 194 195 198 197 201 203 201 201 201 203 203 200 197 195 192 191 191 193 192 190 192 192 190 189 189 192 193 195 195 194 203 209 209 205 196 192 193 191 185 183 186 184 179 184 185 181 175 168 169 170 163 163 161
234 237 249 261 267 270 269 259 255 271 257 248 266 273 260 252 244 241 228 222 233 233 230 232 232 233 233 230 228 225 223 217 207 202 204 208 208 210 210 209 210 210 211 206 193 192 197 196 199 202 201 202 202 202 202 199 196 193 192 193 192 191 191 190 191 191 189 189 188 191 191 191 190 189 194 196 198 198 191 191 189 185 186 183 182 187 185 184 184 181 175 172 176 177 171 169 166
244 226 235 258 270 270 272 272 269 276 250 204 228 264 253 232 234 233 197 195 218 219 219 226 228 230 232 230 226 225 224 219 208 202 206 211 209 208 210 213 215 214 214 211 200 194 196 196 196 199 197 198 203 204 202 201 197 192 192 194 191 190 191 190 190 189 188 186 186 189 190 188 188 187 187 185 186 185 185 191 188 183 188 185 179 184 189 185 182 180 176 174 178 179 175 172 170
257 211 223 245 257 264 270 263 235 261 275 156 203 265 272 242 220 203 186 200 212 208 212 228 232 235 235 234 230 225 221 216 209 206 209 212 211 211 210 211 214 216 217 217 208 197 196 196 194 197 198 198 203 203 200 200 198 193 193 196 194 192 191 189 189 189 185 182 182 185 185 182 183 184 183 182 182 179 180 186 186 183 188 188 182 183 189 185 178 180 178 176 178 178 176 176 177
259 103 218 240 246 259 257 245 231 258 315 179 211 246 268 265 233 188 193 218 220 207 200 222 248 255 251 245 239 229 220 214 209 208 208 207 211 211 208 202 206 214 218 217 212 202 198 199 197 198 196 196 202 202 199 200 198 195 196 197 196 194 191 187 186 184 181 179 180 182 179 175 177 181 181 179 177 175 174 179 184 186 187 189 187 185 189 185 177 181 181 177 179 179 178 181 185
259 96 240 260 267 273 257 240 233 247 283 236 214 215 242 260 228 177 196 226 227 204 175 103 330 307 285 262 245 228 217 213 211 207 202 204 210 210 208 205 203 211 213 208 210 210 207 205 202 199 195 194 200 200 198 200 197 196 197 196 194 191 186 183 181 180 178 177 179 178 173 173 176 177 179 178 174 172 171 173 181 185 185 189 190 187 187 187 184 187 186 183 181 181 182 183 186
265 163 240 259 257 260 249 241 239 216 241 253 223 199 232 261 229 197 201 225 235 199 127 22 8 350 319 272 244 221 205 203 208 204 198 201 205 204 206 204 195 206 213 204 204 209 210 209 208 206 201 195 197 199 197 197 196 197 199 198 195 190 183 180 179 179 178 175 175 173 170 174 176 176 181 176 171 171 170 172 176 181 184 185 188 188 188 191 194 193 191 191 188 185 185 185 186
256 230 231 230 221 225 228 232 244 225 230 248 231 203 230 263 250 228 190 200 304 340 348 357 1 350 337 281 226 204 190 182 180 182 185 187 194 201 198 188 185 204 213 202 196 198 199 203 211 211 204 196 196 199 197 195 193 194 197 198 197 192 185 179 174 175 177 173 171 170 170 175 175 177 180 170 169 175 173 172 173 178 185 183 184 189 191 194 198 197 195 196 195 191 191 191 192
224 236 235 229 209 202 217 207 210 238 240 236 212 205 225 251 259 220 100 91 11 343 332 351 353 346 347 309 193 178 177 170 157 160 164 169 191 203 186 177 184 190 185 175 177 196 198 197 206 206 201 200 200 197 194 193 190 190 193 198 199 193 186 181 176 177 178 173 169 169 172 176 175 175 177 172 176 178 173 172 174 178 182 181 183 189 194 198 199 197 197 197 197 197 197 198 197
218 229 229 233 218 198 220 214 204 235 235 140 149 202 228 250 261 98 102 74 26 8 354 356 347 341 347 356 166 164 168 166 164 173 177 175 192 195 178 171 172 170 171 166 170 195 204 200 199 198 199 205 201 192 188 187 188 190 193 199 201 194 185 182 178 178 179 175 169 168 172 175 174 174 176 179 181 177 171 172 174 175 177 178 180 184 193 201 197 195 198 198 198 200 202 201 201
210 220 219 229 229 218 228 226 222 235 218 130 158 222 247 250 235 82 71 42 31 17 15 8 348 338 346 15 148 159 166 168 170 180 186 184 189 190 180 175 171 170 178 182 181 189 197 197 193 194 201 205 197 188 185 184 187 190 194 201 203 193 181 178 178 177 176 173 170 169 169 171 173 173 175 179 180 174 172 174 171 169 175 179 178 181 189 195 193 192 197 200 199 200 204 204 204
205 219 229 238 242 240 244 245 247 248 221 151 171 208 257 255 129 80 72 68 46 27 33 21 3 3 7 27 130 155 167 164 157 169 185 182 185 190 185 178 175 172 172 174 175 180 185 187 187 191 199 200 191 184 182 184 188 190 191 198 199 189 178 176 178 177 174 173 173 170 167 168 171 171 173 177 176 173 173 176 173 171 176 179 178 182 187 188 192 192 193 199 201 201 205 207 205
199 210 232 242 246 245 254 280 301 295 268 203 183 221 269 252 135 123 123 109 70 46 43 33 30 35 32 33 63 135 154 150 144 159 177 173 178 184 181 177 175 173 170 170 176 181 181 181 185 189 195 195 190 184 180 182 187 187 185 191 193 185 177 177 176 174 173 173 170 165 164 166 169 170 172 173 172 174 180 181 180 180 182 181 181 186 186 186 190 189 188 195 199 204 208 208 207
179 205 226 228 251 258 255 226 143 267 268 245 201 241 255 204 163 140 138 146 93 59 43 44 44 44 56 52 29 65 127 144 155 166 173 179 187 187 183 181 179 178 178 180 186 189 182 180 186 188 189 190 190 185 178 177 182 181 178 184 188 182 176 176 173 169 168 167 164 163 164 166 168 168 167 168 169 174 181 182 181 184 186 184 184 186 185 188 189 187 188 192 195 202 205 206 207
197 208 223 199 239 256 252 244 221 228 253 244 214 246 255 244 217 137 151 164 88 61 39 52 51 43 60 72 59 85 144 172 179 173 177 185 191 192 189 188 188 190 188 187 192 190 178 178 186 188 186 188 189 185 178 176 177 176 176 182 185 178 175 174 170 166 164 163 161 161 161 161 163 164 164 166 168 173 176 176 178 180 183 184 185 187 188 191 192 192 192 190 193 198 198 201 202
234 261 268 228 236 231 219 234 245 243 252 251 234 241 254 260 242 131 141 98 59 47 36 50 49 37 35 42 44 46 95 198 198 189 184 180 183 188 190 191 192 195 194 191 187 180 171 174 184 187 187 187 186 183 180 178 176 175 177 180 177 172 170 171 169 166 164 162 160 157 155 154 157 160 165 167 167 173 173 172 177 181 182 184 187 192 195 194 196 199 199 194 194 194 193 196 197
227 254 250 237 253 254 228 228 242 248 254 255 247 237 238 305 30 77 86 64 39 26 43 47 43 38 30 23 23 25 34 43 346 226 193 180 183 186 190 194 193 194 199 195 183 175 174 177 181 186 186 184 183 184 182 180 178 178 178 176 172 169 167 169 171 167 164 161 159 157 153 151 152 157 164 165 163 170 172 172 179 184 188 190 192 197 200 201 202 203 200 194 192 190 190 194 195
207 220 224 222 226 238 246 246 244 255 262 255 254 251 191 45 28 49 65 60 32 20 48 59 45 40 38 29 22 25 35 46 47 71 186 189 193 191 193 199 195 194 200 196 184 178 177 178 178 182 184 181 183 186 184 182 180 177 175 174 173 171 168 170 171 166 164 162 159 157 156 152 151 155 161 162 162 167 170 171 174 178 188 193 193 197 201 203 205 202 194 187 188 188 189 194 193
237 233 229 227 228 229 237 239 232 243 262 265 269 269 101 67 14 39 61 58 44 33 43 62 51 42 40 34 29 36 39 35 56 93 169 191 201 201 196 199 202 197 193 193 187 175 171 173 176 180 183 183 185 188 187 186 183 177 177 178 178 177 172 171 171 167 165 164 159 158 158 153 151 154 157 159 164 167 166 166 168 169 180 187 186 191 198 200 200 198 193 187 189 190 188 190 187